Big Delta, AK

12:08 PM AKDT on April 23, 2018 (GMT -0800)
Allen Army Air Field

Weather History for PABI - March, 2014

Change the Weather History Date:

Friday, March 14, 2014

  Actual Average Record
Temperature  
Mean Temperature 32 °F -  
Max Temperature 37 °F 22 °F 37 °F (2014)
Min Temperature 28 °F 2 °F -31 °F (2015)
Degree Days  
Heating Degree Days 32    
Moisture  
Dew Point 16 °F    
Average Humidity 51    
Maximum Humidity 59    
Minimum Humidity 34    
Precipitation  
Precipitation 0.00 in - - ()
Sea Level Pressure  
Sea Level Pressure 29.21 in    
Wind  
Wind Speed 27 mph (ESE)    
Max Wind Speed 37 mph    
Max Gust Speed 50 mph    
Visibility 10 miles    
Events      
Averages and records for this station are not official NWS values.
T = Trace of Precipitation, MM = Missing Value Source: NWS Daily Summary

Daily Weather History Graph

Daily Weather History Graph

Search for Another Location

Airport or City:

Astronomy

Mar. 14, 2014 Rise Set
Actual Time 8:03 AM AKDT 7:41 PM AKDT
Civil Twilight 7:16 AM AKDT 8:28 PM AKDT
Nautical Twilight 6:20 AM AKDT 9:25 PM AKDT
Astronomical Twilight 5:19 AM AKDT 10:27 PM AKDT
Moon 5:52 PM AKDT (3/14) 7:16 AM AKDT (3/14)
Length of Visible Light 13h 11m
Length of Day
11h 37m
Waxing Gibbous, 97% of the Moon is Illuminated
Mar 14
Waxing Gibbous
Mar 16
Full
Mar 23
Last Quarter
Mar 30
New
Apr 7
First Quarter

Hourly Weather History & Observations

Time (AKDT) Temp. Windchill Dew Point Humidity Pressure Visibility Wind Dir Wind Speed Gust Speed Precip Events Conditions
12:53 AM 30.0 °F 14.5 °F 12.0 °F 47% 29.28 in 10.0 mi East 32.2 mph 41.4 mph N/A   Clear
1:53 AM 30.0 °F 15.7 °F 12.9 °F 49% 29.27 in 10.0 mi East 26.5 mph 34.5 mph N/A   Clear
2:53 AM 30.0 °F 15.4 °F 12.9 °F 49% 29.25 in 10.0 mi East 27.6 mph 36.8 mph N/A   Clear
3:53 AM 30.0 °F 15.2 °F 12.9 °F 49% 29.24 in 10.0 mi ESE 28.8 mph 38.0 mph N/A   Clear
4:53 AM 30.0 °F 14.9 °F 14.0 °F 51% 29.22 in 10.0 mi East 29.9 mph 41.4 mph N/A   Clear
5:53 AM 28.9 °F 14.5 °F 14.0 °F 54% 29.21 in 10.0 mi East 25.3 mph 38.0 mph N/A   Clear
6:53 AM 28.9 °F 12.1 °F 14.0 °F 54% 29.20 in 10.0 mi ESE 36.8 mph 49.5 mph 0.00 in   Scattered Clouds
7:53 AM 28.0 °F 11.8 °F 14.0 °F 56% 29.19 in 10.0 mi East 32.2 mph 41.4 mph N/A   Scattered Clouds
8:53 AM 28.0 °F 13.3 °F 15.1 °F 58% 29.18 in 10.0 mi East 25.3 mph 36.8 mph N/A   Mostly Cloudy
9:53 AM 28.9 °F 15.4 °F 15.1 °F 56% 29.19 in 10.0 mi East 21.9 mph 33.4 mph N/A   Mostly Cloudy
10:53 AM 30.0 °F 14.9 °F 16.0 °F 56% 29.18 in 10.0 mi East 29.9 mph 44.9 mph N/A   Mostly Cloudy
11:53 AM 32.0 °F 18.4 °F 17.1 °F 54% 29.18 in 10.0 mi ESE 26.5 mph 38.0 mph N/A   Mostly Cloudy
12:53 PM 33.1 °F 20.1 °F 17.1 °F 52% 29.18 in 10.0 mi East 25.3 mph 36.8 mph N/A   Mostly Cloudy
1:53 PM 33.1 °F 19.3 °F 17.1 °F 52% 29.18 in 10.0 mi East 28.8 mph 34.5 mph N/A   Mostly Cloudy
2:53 PM 35.1 °F 23.0 °F 18.0 °F 50% 29.17 in 10.0 mi ESE 24.2 mph 34.5 mph N/A   Mostly Cloudy
3:53 PM 36.0 °F 23.0 °F 18.0 °F 48% 29.17 in 10.0 mi East 29.9 mph 38.0 mph N/A   Overcast
4:53 PM 36.0 °F 23.5 °F 18.0 °F 48% 29.18 in 10.0 mi ESE 27.6 mph 34.5 mph N/A   Overcast
5:53 PM 36.0 °F 24.4 °F 19.0 °F 50% 29.19 in 10.0 mi ESE 23.0 mph 35.7 mph N/A   Overcast
6:53 PM 35.1 °F 23.5 °F 19.0 °F 52% 29.21 in 10.0 mi SE 21.9 mph 29.9 mph N/A   Overcast
7:53 PM 34.0 °F 21.8 °F 19.0 °F 54% 29.22 in 10.0 mi ESE 23.0 mph 31.1 mph N/A   Mostly Cloudy
8:53 PM 33.1 °F 23.0 °F 19.0 °F 56% 29.24 in 10.0 mi ESE 15.0 mph 25.3 mph N/A   Mostly Cloudy
9:53 PM 30.9 °F 19.8 °F 18.0 °F 59% 29.25 in 10.0 mi ESE 16.1 mph - N/A   Clear
10:53 PM 30.9 °F 18.4 °F 18.0 °F 59% 29.26 in 10.0 mi ESE 20.7 mph - N/A   Clear
11:53 PM 30.9 °F 17.8 °F 17.1 °F 57% 29.26 in 10.0 mi ESE 23.0 mph 29.9 mph N/A   Clear